Location: *
(47.8307°S, 178.3954°E)
Time: 08:47:07
(UTC+00:00)

USA 229 - Pass Details

Date: 12 August 2024
Orbit: 890 x 1322 km, 63.4° (Epoch: 31 August)

Event Time Altitude Azimuth Distance (km) Brightness Sun altitude
Rises 18:09:47 0° 320° (NW) 4,283 6.5 -11.1°
Reaches altitude 10° 18:12:41 10° 319° (NW) 3,287 6.0 -10.6°
Maximum altitude 18:20:42 84° 230° (SW) 1,230 4.0 -9.3°
Drops below altitude 10° 18:28:03 10° 140° (SE) 3,025 6.5 -8.1°
Sets 18:30:38 0° 139° (SE) 3,926 7.1 -7.6°
